Date String (YYYY-MM-DD hh:mm:ss) UTC,Instrument flags,Ambient pressure (hPa),Sample flow (lpm),Bypass flow (lpm),Sample temperature (°C),Ambient temperature (°C),ASC tube jacket temperature (°C),LED temperature (°C),Box temperature (°C),Sample RH (%),Span deviation,Mass concentration (μg/m³),Mass concentration (μg/m³),Mass concentration (μg/m³)
DateTimeUTC,F1_M11,P_M11,Q1_M11,Q2_M11,T1_M11,T2_M11,T3_M11,T4_M11,T5_M11,U1_M11,ZSPAN_M11,X0_M11,X2_M11,X1_M11
2022-03-31 06:00:00,,0819.8,5.00,0.00,22.0,22.7,00.0,30.9,24.0,12.2,0000.0,0008.71,0003.58,0002.47
2022-03-31 06:01:00,,0819.8,4.99,0.00,22.0,22.6,00.0,30.9,24.1,12.2,0000.0,0008.29,0003.59,0002.47
2022-03-31 06:02:00,,0819.8,4.99,0.00,22.1,22.4,00.0,30.9,24.0,12.2,0000.0,0007.72,0003.57,0002.47
2022-03-31 06:03:00,,0819.8,5.02,0.00,22.1,22.2,00.0,30.9,24.0,12.1,0000.0,0007.61,0003.54,0002.48
2022-03-31 06:04:00,,0819.8,5.01,0.00,22.1,22.1,00.0,30.9,24.0,12.1,0000.0,0007.54,0003.51,0002.47
2022-03-31 06:05:00,,0819.8,4.99,0.00,22.1,21.9,00.0,30.9,24.0,12.1,0000.0,0007.57,0003.52,0002.47
2022-03-31 06:06:00,,0819.8,5.01,0.00,22.1,21.8,00.0,31.0,23.9,12.0,0000.0,0007.47,0003.49,0002.47
2022-03-31 06:07:00,,0819.8,5.00,0.00,22.1,21.7,00.0,31.0,23.9,12.0,0000.0,0007.62,0003.49,0002.49
2022-03-31 06:08:00,,0819.8,5.00,0.00,22.1,21.6,00.0,31.0,23.9,12.0,0000.0,0007.65,0003.49,0002.49
2022-03-31 06:09:00,,0819.8,5.00,0.00,22.1,21.6,00.0,31.0,23.9,12.0,0000.0,0007.53,0003.47,0002.50
2022-03-31 06:10:00,,0819.8,5.01,0.00,22.1,21.5,00.0,31.0,23.9,12.0,0000.0,0008.04,0003.48,0002.53
2022-03-31 06:11:00,,0819.8,5.00,0.00,22.1,21.5,00.0,31.0,23.9,11.9,0000.0,0008.19,0003.49,0002.54
2022-03-31 06:12:00,,0819.8,5.00,0.00,22.1,21.4,00.0,31.0,23.9,12.0,0000.0,0008.06,0003.49,0002.55
2022-03-31 06:13:00,,0819.8,5.00,0.00,22.1,21.4,00.0,31.0,23.9,11.9,0000.0,0008.06,0003.48,0002.53
2022-03-31 06:14:00,,0819.8,4.99,0.00,22.1,21.4,00.0,31.0,23.8,11.9,0000.0,0007.97,0003.45,0002.53
2022-03-31 06:15:00,,0819.8,5.00,0.00,22.1,21.3,00.0,31.0,23.8,11.9,0000.0,0007.84,0003.44,0002.53
2022-03-31 06:16:00,,0819.8,5.00,0.00,22.0,21.3,00.0,31.0,23.8,11.9,0000.0,0007.79,0003.41,0002.51
2022-03-31 06:17:00,,0819.8,4.99,0.00,22.0,21.3,00.0,31.0,23.8,11.9,0000.0,0007.77,0003.38,0002.49
2022-03-31 06:18:00,,0819.8,5.00,0.00,22.0,21.3,00.0,31.0,23.8,12.0,0000.0,0007.96,0003.34,0002.45
2022-03-31 06:19:00,,0819.8,5.00,0.00,22.0,21.3,00.0,31.0,23.8,11.9,0000.0,0008.12,0003.33,0002.43
2022-03-31 06:20:00,,0819.8,5.00,0.00,22.0,21.3,00.0,31.0,23.8,11.9,0000.0,0008.18,0003.34,0002.42
2022-03-31 06:21:00,,0819.8,5.00,0.00,22.0,21.3,00.0,31.0,23.8,11.9,0000.0,0007.77,0003.35,0002.40
2022-03-31 06:22:00,,0819.7,5.00,0.00,22.0,21.3,00.0,31.0,23.8,11.8,0000.0,0007.43,0003.31,0002.39
2022-03-31 06:23:00,,0819.7,5.00,0.00,22.0,21.2,00.0,31.0,23.8,11.8,0000.0,0007.30,0003.27,0002.38
2022-03-31 06:24:00,,0819.7,5.00,0.00,22.0,21.2,00.0,31.0,23.8,11.8,0000.0,0007.27,0003.28,0002.38
2022-03-31 06:25:00,,0819.7,5.00,0.00,22.0,21.2,00.0,31.0,23.8,11.7,0000.0,0007.40,0003.32,0002.39
2022-03-31 06:26:00,,0819.7,5.00,0.00,22.0,21.2,00.0,31.0,23.8,11.6,0000.0,0007.47,0003.32,0002.37
2022-03-31 06:27:00,,0819.7,5.00,0.00,22.0,21.2,00.0,31.0,23.7,11.7,0000.0,0007.29,0003.30,0002.37
2022-03-31 06:28:00,,0819.8,5.01,0.00,22.0,21.1,00.0,31.0,23.7,11.7,0000.0,0007.20,0003.32,0002.40
2022-03-31 06:29:00,,0819.7,5.00,0.00,21.9,21.1,00.0,31.0,23.7,11.8,0000.0,0006.79,0003.35,0002.41
2022-03-31 06:30:00,,0819.8,4.99,0.00,21.9,21.1,00.0,31.0,23.7,11.8,0000.0,0006.11,0003.36,0002.44
2022-03-31 06:31:00,,0819.7,5.00,0.00,21.9,21.1,00.0,31.0,23.7,11.7,0000.0,0006.57,0003.37,0002.43
2022-03-31 06:32:00,,0819.8,5.00,0.00,21.9,21.1,00.0,31.0,23.7,11.6,0000.0,0007.31,0003.35,0002.42
2022-03-31 06:33:00,,0819.8,5.00,0.00,21.9,21.2,00.0,31.0,23.7,11.5,0000.0,0007.32,0003.34,0002.40
2022-03-31 06:34:00,,0819.8,4.99,0.00,22.0,21.8,00.0,31.0,23.9,11.4,0000.0,0007.42,0003.36,0002.37
2022-03-31 06:35:00,,0819.8,5.00,0.00,22.2,22.7,00.0,31.1,24.2,11.3,0000.0,0007.40,0003.32,0002.34
2022-03-31 06:36:00,,0819.7,5.01,0.00,22.3,23.0,00.0,31.1,24.3,11.2,0000.0,0007.23,0003.26,0002.29
2022-03-31 06:37:00,,0819.6,5.00,0.00,22.3,22.8,00.0,31.1,24.3,11.1,0000.0,0007.25,0003.27,0002.28
2022-03-31 06:38:00,,0819.6,4.99,0.00,22.3,22.5,00.0,31.2,24.3,11.2,0000.0,0007.41,0003.29,0002.27
2022-03-31 06:39:00,,0819.6,5.00,0.00,22.3,22.3,00.0,31.2,24.2,11.2,0000.0,0007.43,0003.30,0002.25
2022-03-31 06:40:00,,0819.7,5.00,0.00,22.3,22.1,00.0,31.2,24.2,11.2,0000.0,0007.37,0003.28,0002.24
2022-03-31 06:41:00,,0819.7,5.01,0.00,22.3,22.0,00.0,31.2,24.1,11.2,0000.0,0007.30,0003.25,0002.22
2022-03-31 06:42:00,,0819.7,4.99,0.00,22.3,21.8,00.0,31.2,24.1,11.2,0000.0,0006.68,0003.23,0002.22
2022-03-31 06:43:00,,0819.8,5.01,0.00,22.3,21.7,00.0,31.2,24.1,11.2,0000.0,0005.98,0003.24,0002.21
2022-03-31 06:44:00,,0819.7,5.00,0.00,22.3,21.6,00.0,31.2,24.0,11.3,0000.0,0006.45,0003.26,0002.21
2022-03-31 06:45:00,,0819.7,5.00,0.00,22.3,21.6,00.0,31.2,24.0,11.2,0000.0,0006.64,0003.25,0002.21
2022-03-31 06:46:00,,0819.7,5.00,0.00,22.2,21.5,00.0,31.2,24.0,11.1,0000.0,0007.86,0003.30,0002.23
2022-03-31 06:47:00,,0819.8,5.00,0.00,22.2,21.5,00.0,31.2,24.0,11.1,0000.0,0008.18,0003.32,0002.24
2022-03-31 06:48:00,,0819.8,5.00,0.00,22.2,21.5,00.0,31.2,24.0,11.1,0000.0,0008.16,0003.31,0002.26
2022-03-31 06:49:00,,0819.7,5.00,0.00,22.2,21.4,00.0,31.2,24.0,11.1,0000.0,0008.37,0003.34,0002.26
2022-03-31 06:50:00,,0819.7,5.00,0.00,22.2,21.4,00.0,31.2,23.9,11.1,0000.0,0008.40,0003.33,0002.24
2022-03-31 06:51:00,,0819.7,5.00,0.00,22.2,21.4,00.0,31.2,24.0,11.1,0000.0,0008.76,0003.31,0002.23
2022-03-31 06:52:00,,0819.7,5.00,0.00,22.2,21.4,00.0,31.2,24.0,11.1,0000.0,0008.91,0003.28,0002.22
2022-03-31 06:53:00,,0819.8,5.00,0.00,22.2,21.4,00.0,31.2,24.0,11.1,0000.0,0008.79,0003.25,0002.22
2022-03-31 06:54:00,,0819.8,5.00,0.00,22.2,21.4,00.0,31.2,24.0,11.1,0000.0,0008.68,0003.21,0002.21
2022-03-31 06:55:00,,0819.7,5.00,0.00,22.2,21.3,00.0,31.2,23.9,11.1,0000.0,0008.89,0003.18,0002.22
2022-03-31 06:56:00,,0819.8,5.00,0.00,22.1,21.3,00.0,31.2,23.9,11.1,0000.0,0008.85,0003.18,0002.22
2022-03-31 06:57:00,,0819.8,4.99,0.00,22.2,21.3,00.0,31.2,23.9,11.0,0000.0,0008.15,0003.19,0002.20
2022-03-31 06:58:00,,0819.7,5.01,0.00,22.2,21.3,00.0,31.2,24.0,11.0,0000.0,0008.03,0003.23,0002.19
2022-03-31 06:59:00,,0819.7,4.99,0.00,22.2,21.3,00.0,31.2,24.0,11.0,0000.0,0008.26,0003.25,0002.18
